Regional Weather Roundup
Issued by NWS

Home | Current Version | Previous Version | Graphics & Text | Print | Product List | Glossary On
Versions: 1 2 3 4 5 6 7 8 9 10 11 12 13 14 15 16 17 18 19 20 21 22 23 24 25 26 27 28 29 30 31 32 33 34 35 36 37 38 39 40 41 42 43 44 45 46 47 48 49 50
000
ASUS43 KMKX 241011
RWRWI

WISCONSIN REGIONAL WEATHER ROUNDUP
NATIONAL WEATHER SERVICE MILWAUKEE/SULLIVAN WI
500 AM CDT FRI MAR 24 2017

NOTE: "FAIR" INDICATES FEW OR NO CLOUDS BELOW 12,000 FEET WITH NO
SIGNIFICANT WEATHER AND/OR OBSTRUCTIONS TO VISIBILITY.

WIZ001-002-006>008-014>016-023>028-241100-
NORTHWEST WISCONSIN

CITY           SKY/WX    TMP DP  RH WIND       PRES   REMARKS
SUPERIOR ARPT  FOG       32  32 100 CALM      29.91S VSB 3/4
ASHLAND        FOG       32  32 100 CALM      29.90S VSB 3/4
HAYWARD        CLOUDY    35  31  85 CALM      29.89R FOG
SIREN          CLOUDY    34  33  98 CALM      29.89S FOG
CUMBERLAND     FOG       34  32  93 NE7       29.85F VSB 1   WCI  28
RICE LAKE      RAIN      35  35  99 CALM      29.87F
CHETEK         DRIZZLE   35  35 100 NE3       29.86F
LADYSMITH      LGT RAIN  35  35  98 NE5       29.88F WCI  31
EAU CLAIRE     CLOUDY    38  38 100 N3        29.82F FOG
MENOMONIE      CLOUDY    38  37  94 CALM      29.84F FOG
NEW RICHMOND   DRIZZLE   36  36 100 NE7       29.84F WCI  31
OSCEOLA        CLOUDY    37  37 100 N3        29.88F FOG
$$

WIZ003>005-009-010-017-018-241100-
NORTH CENTRAL WISCONSIN

CITY           SKY/WX    TMP DP  RH WIND       PRES   REMARKS
MANITOWISH WTR LGT RAIN  32  32 100 S3        29.89R
ARBOR VITAE    CLOUDY    34  33  96 CALM      29.88R FOG
WOODRUFF       CLOUDY    34  33  96 CALM      29.88R FOG
RHINELANDER    CLOUDY    34  32  92 CALM      29.89R FOG
EAGLE RIVER    CLOUDY    32  32 100 CALM      29.88R FOG
LAND O LAKES   CLOUDY    33  33 100 CALM      29.89R FOG
PHILLIPS       LGT RAIN  33  33 100 CALM      29.87S
TOMAHAWK       LGT RAIN  32  31  98 CALM      29.89S
MEDFORD        LGT RAIN  34  34  99 NE5       29.84F WCI  30
MERRILL        LGT RAIN  33  33 100 CALM      29.87F
$$

WIZ029-030-035-036-043>047-241100-
CENTRAL WISCONSIN

CITY           SKY/WX    TMP DP  RH WIND       PRES   REMARKS
WAUSAU         RAIN      34  34 100 SE6       29.85F FOG     WCI  29
MOSINEE        LGT SNOW  34  34 100 E3        29.87F
MARSHFIELD     LGT RAIN  37  37 100 S7        29.83F FOG     WCI  32
STEVENS POINT  LGT RAIN  35  35 100 S3        29.86F
WAUPACA        CLOUDY    37  35  90 CALM      29.89F FOG
WAUTOMA        CLOUDY    38  37  97 E6        29.88S WCI  33
WISC RAPIDS    CLOUDY    38  37  97 E3        29.87F FOG
CAMP DOUGLAS   CLOUDY    39  36  91 CALM      29.86S
$$

WIZ011>013-019>022-031-037>040-048>050-241100-
NORTHEAST WISCONSIN

CITY           SKY/WX    TMP DP  RH WIND       PRES   REMARKS
ANTIGO         MIX PCPN  32  32 100 NE3       29.85F
SHAWANO        LGT RAIN  36  34  92 CALM      29.90R
OCONTO         CLOUDY    35  34  96 NE5       29.90R WCI  30
STURGEON BAY   CLOUDY    36  35  96 CALM      29.91R FOG
GREEN BAY      CLOUDY    37  36  96 CALM      29.91R FOG
MANITOWOC      CLOUDY    37  35  92 NW3       29.92R FOG
APPLETON       CLOUDY    37  36  93 N5        29.89R WCI  34
CLINTONVILLE   LGT RAIN  34  32  93 CALM      29.89F
OSHKOSH        CLOUDY    38  35  89 N6        29.90R FOG     WCI  33
$$

WIZ032>034-041-042-053>061-241100-
SOUTHWEST WISCONSIN

CITY           SKY/WX    TMP DP  RH WIND       PRES   REMARKS
LA CROSSE      CLOUDY    41  40  96 CALM      29.83F
SPARTA         CLOUDY    39  39  99 E6        29.87S FOG     WCI  35
VIROQUA        CLOUDY    40  39  95 NE5       29.84S
BOSCOBEL       CLOUDY    42  37  82 NE5       29.85R
PRAIRIE DU CHI PTCLDY    42  37  83 NW12G17   29.84R
PLATTEVILLE    CLOUDY    45  42  90 S14       29.82S
$$

WIZ056-057-062-063-064-067-068-241100-
SOUTH CENTRAL WISCONSIN

CITY           SKY/WX    TMP DP  RH WIND       PRES   REMARKS
REEDSBURG      CLOUDY    42  39  91 N3        29.86R
BARABOO/DELLS  CLOUDY    43  37  79 N5        29.87R
LONE ROCK      CLOUDY    42  37  82 N5        29.85R
MINERAL POINT  PTCLDY    43  41  93 SE7       29.82R
MADISON        CLOUDY    46  39  76 SW9       29.83F
MIDDLETON      CLOUDY    46  40  78 SW6       29.83F
WATERTOWN      CLOUDY    43  40  87 S5        29.84S
MONROE         PTCLDY    43  39  87 S18       29.82F
JANESVILLE     CLOUDY    46  39  76 S8        29.85S
$$

WIZ051-052-058>065-066-070>072-241100-
SOUTHEAST WISCONSIN

CITY           SKY/WX    TMP DP  RH WIND       PRES   REMARKS
MILWAUKEE      MOCLDY    49  40  71 SW13      29.86S
WAUKESHA       MOCLDY    45  37  76 SW12      29.86S
MILWAUKEE/TIMM CLOUDY    45  36  70 S5        29.86S
RACINE         CLOUDY    49  39  68 SW13      29.88S
KENOSHA        CLOUDY    50  41  71 SW12      29.87S
FOND DU LAC    CLOUDY    39  34  82 N6        29.88R WCI  35
SHEBOYGAN      CLOUDY    37  34  89 MISG      29.89R FOG
WEST BEND      MOCLDY    43  37  81 N6        29.86R
JUNEAU         MOCLDY    41  37  84 CALM      29.88R
$$

LSZ147-162-241100-
LAKE SUPERIOR

STATION/POSITION TIME  TEMP    WIND        PRES    WAVE
                       AIR SEA DIR/SP/G            HT/PER
                 (UTC) (F)     (DEG/KT/KT) (MB)    (FT/S)
DEVILS ISLAND    1000   33     220/  4/  4 1013.3F
PORT WING        0940   33      70/  1/  2 1012.5F
SAXON HARBOR     0930   33      CALM  /  1 1012.5F
$$

LMZ867-665-643>646-241100-
LAKE MICHIGAN

STATION/POSITION TIME  TEMP    WIND        PRES    WAVE
                       AIR SEA DIR/SP/G            HT/PER
                 (UTC) (F)     (DEG/KT/KT) (MB)    (FT/S)
CHAMBERS ISLAND  0940   35      CALM  /  1 1012.2S
NORTHPORT PIER   0940   36      CALM  /  2 1012.9S
KEWAUNEE LAKESHO 0942   36      CALM  /  2 1012.1R
SHEBOYGAN LAKESH 1000   37     360/  5/  5 1012.8R
PORT WASHINGTON  0940   38      CALM  /  3 1012.2F
MILWAUKEE LAKESH 0950   49     220/ 13/ 15   N/A
KENOSHA   LAKESH 1000   51     200/  7/ 13 1011.9
$$

TC  - TEMPERATURE IN CELSIUS
VSB - VISIBILITY IN STATUTE MILES
WCI - WIND CHILL INDEX
HX  - HEAT INDEX




USA.gov is the U.S. government's official web portal to all federal, state and local government web resources and services.